User: anonymous   Login
Location: 相模原市立博物館
(35.5593°N, 139.3931°E)
Time: 14:17:30
(UTC+09:00)
Language:

AAUSAT CUBESAT 2 - Orbit

View from above orbital plane
View from above orbital plane
View from above satellite
View from above satellite

Ground track
Ground track

The orbit data is extracted from the following two-line orbital elements,

1 32788U 08021F   22026.71353421  .00002583  00000-0  23377-3 0  9990
2 32788  97.5222  17.2890 0009961 234.5598 125.4694 14.96212748747334
Epoch (UTC): 26 January 2022 17:07:29
Eccentricity: 0.0009961
inclination: 97.5222°
perigee height: 571 km
apogee height: 585 km
right ascension of ascending node: 17.2890°
argument of perigee: 234.5598°
revolutions per day: 14.96212748
mean anomaly at epoch: 125.4694°
orbit number at epoch: 74733

The dashed part of the orbit path shows where the satellite is in the earth's shadow,  

DLR